Location: Skalnate Pleso
(49.1889°N, 20.2450°E)
Time: 13:33:30
(UTC+02:00)

Cosmos 1605 Rocket - Pass Details

Date: 24 February 2020
Orbit: 944 x 1007 km, 82.9° (Epoch: 06 April)

Event Time Altitude Azimuth Distance (km) Brightness Sun altitude
Rises 01:00:07 0° 2° (N) 3,687 7.6 -48.1°
Reaches altitude 10° 01:05:39 10° 42° (NE) 2,713 6.8 -47.7°
Maximum altitude 01:06:39 10° 52° (NE) 2,680 6.7 -47.6°
Drops below altitude 10° 01:07:41 10° 61° (ENE) 2,704 6.7 -47.5°
Enters shadow 01:08:25 - 68° (ENE) 2,757 6.7 -47.5°
